Regional Weather Roundup
Issued by NWS Newport/Morehead, NC

Current Version | Previous Version | Text Only | Print | Product List | Glossary On
Versions: 1 2 3 4 5 6 7 8 9 10 11 12 13 14 15 16 17 18 19 20 21 22 23 24 25 26 27 28 29 30 31 32 33 34 35 36 37 38 39 40 41 42 43 44 45 46 47 48 49 50
000 ASUS42 KMHX 021525 RWRMHX WEATHER ROUNDUP FOR EASTERN NORTH CAROLINA NATIONAL WEATHER SERVICE NEWPORT/MOREHEAD CITY NC 1100 AM EDT MON MAY 02 2016 NOTE: "FAIR" INDICATES FEW OR NO CLOUDS BELOW 12,000 FEET WITH NO SIGNIFICANT WEATHER AND/OR OBSTRUCTIONS TO VISIBILITY NCZ015>017-031-032-045>047-102-103-021600- NORTH COAST CITY SKY/WX TMP DP RH WIND PRES REMARKS EDENTON MOSUNNY 76 69 79 SW7 30.02F ELIZABETH CITY MOSUNNY 76 68 76 SW14 30.01S KITTY HAWK CLOUDY 77 69 75 SW10G17 30.01S MANTEO NOT AVBL $$ NCZ045>047-081-094-103-104-021600- CENTRAL COAST CITY SKY/WX TMP DP RH WIND PRES REMARKS FRISCO MOSUNNY 74 69 85 SW12G18 30.06F SWANQUARTER NOT AVBL $$ NCZ095-097-098-100-101-021600- SOUTHERN COAST CITY SKY/WX TMP DP RH WIND PRES REMARKS BEAUFORT PTSUNNY 76 70 82 SW15 30.07F CEDAR ISLAND NOT AVBL JACKSONVILLE CLOUDY 76 69 79 SW7 30.05F PINEY ISLAND NOT AVBL WILMINGTON PTSUNNY 81 69 67 SW13 30.06S $$ NCZ011>013-027>030-043-044-078>080-089-090>093-098-021600- COASTAL PLAIN CITY SKY/WX TMP DP RH WIND PRES REMARKS AHOSKIE MOSUNNY 77 67 72 CALM 30.00F CLINTON CLOUDY 77 70 78 SW6G16 30.04F ELIZABETHTOWN MOSUNNY 77 67 71 SW9 30.05F GOLDSBORO CLOUDY 77 73 88 SW13 30.02S GREENVILLE CLOUDY 77 70 78 SW10 30.04F HAVELOCK CLOUDY 79 69 71 SW15 30.06F KENANSVILLE CLOUDY 77 67 70 SW10 30.05S KINSTON PTSUNNY 79 68 69 SW12G17 30.04F NEW BERN CLOUDY 77 68 73 SW9 30.06F RICHLANDS CLOUDY 79 70 73 S13 30.06F ROCKY MOUNT CLOUDY 77 67 71 SW10G17 30.02S WASHINGTON CLOUDY 78 68 70 SW10 30.03S WHITEVILLE CLOUDY 76 68 76 SW9 30.06S $$ AMZ130-135-150-152-154-156-158-170-250-252-270-ANZ085-086-088-633-658-670-021600- MARINE OBSERVATIONS STATION/POSITION TIME TEMP WIND PRES WAVE SWELL AIR SEA DIR/SP/G HT/PER HT/PER (UTC) (F) (DEG/KT/KT) (MB) (FT/S) (FT/S) CHESAPEAKE LIGHT 1500 67 220/ 15/ 16 1015.7 64 E VA BEACH 1450 59 53 220/ 12/ 14 1016.0 5/10 5/10 DUCK 1500 73 68 220/ 14/ 17 1015.7 2 E DUCK 1411 58 N/A 3/12 2/12 OREGON INLET 1500 70 67 210/ 15/ 17 1016.7 13E OREGON INLT 1500 60 N/A 5/11 5/11 HATTERAS CG 1500 74 67 220/ 9/ 15 1017.7 DIAMOND BUOY 1450 74 73 230/ 16/ 19 1017.8 4/ 9 3/ 9 CAPE LOOKOUT 1500 74 220/ 11/ 15 1018.0 BEAUFORT LAB 1500 74 67 210/ 7/ 13 1017.5 30 SE NEW RVR IN 1425 69 N/A 4/ 5 2/11 27 SE WRIGHTSVLE 1508 73 71 230/ 8/ 12 1019.0 5 SE WRIGHTSVLE 1508 72 69 210/ 10/ 12 1018.8 225 S CAPE HAT 1450 74 74 160/ 12/ 12 1021.0 3/10 3/10 41 SE CHARLESTON 1450 75 73 230/ 6/ 6 1018.1 3/ 5 3/ 5 $$

USA.gov is the U.S. government's official web portal to all federal, state and local government web resources and services.